Pagina principale
METAR-TAF:

METAR-TAF

Aeroporti :

Flotila 71 Aeriană

Câmpia Turzii, Romania

latitudine: 46-30-12N, longitudine: 023-53-07E, altezza: 324 m

Osservazione

Il bollettino è stato emesso 3 ore e 29 minuti fa, alle 21:00 UTC
Vento 6 kt da nord/nord-ovest
Temperature 20°C
Umidità 78%
Pressione 1021 hPa
Visibilità 10 km o più
Poco nuvoloso ad un'altezza di 10000 ft

METAR: LRCT 202100Z 33006KT 9999 FEW100 20/16 Q1021 BLU BLU

Ora: 03:29 (00:29 UTC)


TAF: mancante

Osservazioni e previsioni meteorologiche di più di 4000 aeroporti (messaggi METAR e TAF).

Le stazioni disponibili sono rappresentate dai dischi gialli e rossi sulla carta.

Puntare il mouse per vedere il nome della stazione.

Clicca sopra per visualizzare le osservazioni e previsioni meteorologiche.

Per cambiare la mappa : fare clic sui pulsanti verdi con una croce nera per ingrandire, il pulsante verde con un trattino per diminuire, o sulla freccia verde per le mappe adiacenti.


METAR-TAF: